FW9291 Weather Reports


time (UTC)temp
C
wind
direction
speed
KPH
gust
KPH
rain 1hr
cm
rain 24hr
cm
rain mn
cm
humidity
%
barometer
mb
20260505041333 14 52 4.8 8.0 0.00 0.03 0.03 74 1031.0
20260505040831 14 69 4.8 8.0 0.00 0.03 0.03 75 1031.0
20260505040332 14 59 4.8 8.0 0.00 0.03 0.03 76 1031.0
20260505035833 14 49 4.8 8.0 0.00 0.03 0.03 74 1030.9
20260505035333 14 51 4.8 8.0 0.00 0.03 0.03 75 1030.8
20260505034832 14 46 3.2 8.0 0.00 0.03 0.03 74 1030.9
20260505034332 14 54 4.8 6.4 0.00 0.03 0.03 74 1030.9
20260505033334 14 64 3.2 4.8 0.00 0.03 0.03 74 1030.8
20260505032330 15 96 3.2 4.8 0.00 0.03 0.03 74 1030.8
20260505031831 15 65 3.2 4.8 0.00 0.03 0.03 73 1030.9
20260505031329 14 78 3.2 8.0 0.00 0.03 0.03 74 1030.9
20260505030826 14 78 3.2 8.0 0.00 0.03 0.03 74 1030.9
20260505030326 14 98 3.2 4.8 0.00 0.03 0.03 74 1030.9
20260505025828 14 84 3.2 4.8 0.00 0.03 0.03 74 1031.0
20260505025334 14 97 3.2 6.4 0.00 0.03 0.03 74 1030.9
20260505024828 15 89 3.2 6.4 0.00 0.03 0.03 73 1030.9
20260505023823 14 57 3.2 8.0 0.00 0.03 0.03 75 1031.0
20260505023323 14 76 3.2 6.4 0.00 0.03 0.03 73 1031.2
20260505022820 14 78 3.2 9.7 0.00 0.03 0.03 73 1031.0
20260505022316 15 64 3.2 9.7 0.00 0.03 0.03 72 1031.0
20260505021815 15 55 3.2 8.0 0.00 0.03 0.03 72 1031.0
20260505021320 15 73 3.2 9.7 0.00 0.03 0.03 73 1031.1
20260505020816 15 44 3.2 9.7 0.00 0.03 0.03 74 1031.0
20260505020314 15 45 3.2 8.0 0.00 0.03 0.03 71 1031.0
20260505014813 15 65 4.8 9.7 0.00 0.03 0.03 73 1031.2
20260505014315 15 52 4.8 9.7 0.00 0.03 0.03 73 1031.3
20260505013813 15 85 3.2 8.0 0.00 0.03 0.03 73 1031.2
20260505013313 15 83 4.8 9.7 0.00 0.03 0.03 73 1031.5
20260505012813 15 49 4.8 9.7 0.00 0.03 0.03 73 1031.5
20260505012316 15 75 6.4 9.7 0.00 0.03 0.03 73 1031.6
20260505011813 15 40 4.8 8.0 0.00 0.03 0.03 73 1031.6
20260505011316 15 59 4.8 9.7 0.00 0.03 0.03 73 1031.7
20260505010816 15 65 4.8 9.7 0.00 0.03 0.03 73 1031.7
20260505005813 14 80 4.8 9.7 0.00 0.03 0.03 73 1031.9
20260505005314 14 78 4.8 9.7 0.00 0.03 0.03 74 1031.8
20260505004814 14 66 4.8 9.7 0.00 0.03 0.03 72 1032.0
20260505004313 15 51 4.8 11.3 0.00 0.03 0.03 72 1032.2
20260505003314 14 49 4.8 9.7 0.00 0.03 0.03 73 1032.3
20260505002813 15 93 4.8 9.7 0.00 0.03 0.03 74 1032.3
20260505002315 14 39 4.8 8.0 0.00 0.03 0.03 74 1032.4
20260505001813 14 38 4.8 11.3 0.00 0.03 0.03 74 1032.6
20260505001314 13 53 4.8 11.3 0.00 0.03 0.03 75 1032.6
20260505000814 13 74 4.8 9.7 0.00 0.03 0.03 74 1032.6
20260505000313 13 55 4.8 6.4 0.00 0.03 0.03 75 1032.7
20260504235814 13 91 4.8 6.4 0.00 0.03 0.03 76 1032.7
20260504234814 13 54 6.4 11.3 0.00 0.03 0.03 77 1032.9
20260504234313 13 49 6.4 11.3 0.00 0.03 0.03 76 1033.0
20260504233814 13 64 4.8 11.3 0.00 0.03 0.03 76 1033.1
20260504233314 13 32 6.4 11.3 0.00 0.03 0.03 78 1033.2
20260504232810 13 63 4.8 11.3 0.00 0.03 0.03 76 1033.3
20260504232311 13 49 4.8 12.9 0.00 0.03 0.03 76 1033.3
20260504231813 13 61 4.8 12.9 0.00 0.03 0.03 75 1033.3
20260504231308 13 66 4.8 11.3 0.00 0.03 0.03 76 1033.4
20260504230809 13 51 4.8 9.7 0.00 0.03 0.03 75 1033.4
20260504230310 13 79 3.2 9.7 0.00 0.03 0.03 75 1033.4
20260504225810 13 57 3.2 9.7 0.00 0.03 0.03 76 1033.4
20260504225306 13 84 3.2 8.0 0.00 0.03 0.03 76 1033.4
20260504224804 13 89 4.8 8.0 0.00 0.03 0.03 76 1033.4
20260504224304 13 112 4.8 8.0 0.00 0.03 0.03 76 1033.6
20260504223802 13 74 3.2 6.4 0.00 0.03 0.03 75 1033.5
20260504223257 13 280 1.6 4.8 0.00 0.03 0.03 73 1033.5
20260504222752 13 287 3.2 4.8 0.00 0.03 0.03 74 1033.7
20260504222251 13 323 1.6 4.8 0.00 0.03 0.03 75 1033.6
20260504221750 12 321 1.6 4.8 0.00 0.03 0.03 76 1033.7
20260504221249 12 266 3.2 6.4 0.00 0.03 0.03 76 1033.7
20260504220749 12 315 1.6 6.4 0.00 0.03 0.03 77 1033.7
20260504220249 12 315 1.6 6.4 0.00 0.03 0.03 79 1033.7
20260504215749 11 280 3.2 6.4 0.00 0.03 0.03 82 1033.7
20260504215248 11 280 3.2 6.4 0.00 0.03 0.03 81 1033.8
20260504214746 11 244 3.2 6.4 0.00 0.03 0.03 83 1033.9
20260504214243 11 244 3.2 6.4 0.00 0.03 0.03 84 1033.9
20260504213743 11 244 3.2 6.4 0.00 0.03 0.03 85 1033.8
20260504213245 10 250 3.2 6.4 0.00 0.03 0.03 87 1034.0
20260504212743 10 252 3.2 4.8 0.00 0.03 0.03 88 1034.0
20260504211741 10 247 3.2 9.7 0.03 0.03 0.03 90 1034.0
20260504211237 10 244 3.2 8.0 0.03 0.03 0.03 91 1033.9
20260504210737 9 266 3.2 6.4 0.03 0.03 0.03 92 1034.0
20260504210237 9 266 3.2 6.4 0.03 0.03 0.03 92 1034.0
20260504205735 9 258 3.2 6.4 0.03 0.03 0.03 93 1034.1
20260504205236 8 253 3.2 6.4 0.03 0.03 0.03 93 1034.0
20260504204736 8 253 3.2 6.4 0.03 0.03 0.03 94 1034.0
20260504204235 8 253 3.2 6.4 0.03 0.03 0.03 94 1033.9
20260504203735 8 254 1.6 4.8 0.03 0.03 0.03 94 1034.0
20260504203234 7 254 1.6 4.8 0.03 0.03 0.03 94 1034.0
20260504202737 7 253 1.6 4.8 0.03 0.03 0.03 94 1034.0
20260504201732 7 253 1.6 4.8 0.00 0.00 0.00 94 1033.8
20260504201232 6 253 0.0 3.2 0.00 0.00 0.00 94 1033.8
20260504200733 6 253 0.0 0.0 0.00 0.00 0.00 94 1033.9
20260504195731 6 254 0.0 0.0 0.00 0.00 0.00 94 1033.8
20260504195232 5 253 0.0 0.0 0.00 0.00 0.00 94 1033.8
20260504194730 5 253 0.0 0.0 0.00 0.00 0.00 94 1033.8
20260504194231 5 254 0.0 0.0 0.00 0.00 0.00 94 1033.7
20260504193231 5 253 0.0 0.0 0.00 0.00 0.00 94 1033.8
20260504192731 4 253 0.0 0.0 0.00 0.00 0.00 94 1033.8
20260504192229 4 253 0.0 0.0 0.00 0.00 0.00 93 1033.4
20260504191727 4 253 0.0 0.0 0.00 0.00 0.00 93 1033.6
20260504191228 4 253 0.0 0.0 0.00 0.00 0.00 93 1033.4
20260504190725 4 253 0.0 0.0 0.00 0.00 0.00 93 1033.4
20260504190227 4 252 0.0 0.0 0.00 0.00 0.00 93 1033.4
20260504185724 4 252 0.0 0.0 0.00 0.00 0.00 93 1033.3
20260504185226 4 252 0.0 0.0 0.00 0.00 0.00 93 1033.4
20260504184725 4 252 0.0 0.0 0.00 0.00 0.00 93 1033.2
20260504184224 4 253 0.0 0.0 0.00 0.00 0.00 93 1033.3
20260504183723 4 253 0.0 0.0 0.00 0.00 0.00 93 1033.3
20260504183221 4 253 0.0 0.0 0.00 0.00 0.00 93 1033.3
20260504182722 5 252 0.0 0.0 0.00 0.00 0.00 93 1033.2
20260504182218 5 252 0.0 0.0 0.00 0.00 0.00 93 1033.2
20260504181214 5 252 0.0 0.0 0.00 0.00 0.00 93 1033.3
20260504180715 5 252 0.0 0.0 0.00 0.00 0.00 93 1033.2
20260504180215 5 252 0.0 0.0 0.00 0.00 0.00 93 1033.2
20260504175717 5 252 0.0 0.0 0.00 0.00 0.00 93 1033.2
20260504175215 5 252 0.0 0.0 0.00 0.00 0.00 94 1033.3
20260504174717 5 253 0.0 0.0 0.00 0.00 0.00 93 1033.3
20260504174214 5 253 0.0 0.0 0.00 0.00 0.00 93 1033.2
20260504173716 5 253 0.0 0.0 0.00 0.00 0.00 93 1033.2
20260504172215 5 252 0.0 0.0 0.00 0.00 0.00 93 1033.2
20260504171717 5 253 0.0 0.0 0.00 0.00 0.00 93 1033.3
20260504170714 5 254 0.0 0.0 0.00 0.00 0.00 93 1033.2
20260504170216 5 252 0.0 0.0 0.00 0.00 0.00 93 1033.2
20260504150644 6 253 0.0 0.0 0.00 0.00 0.00 93 1033.7
20260504150144 6 253 0.0 0.0 0.00 0.00 0.00 92 1033.7
20260504141137 6 254 1.6 4.8 0.00 0.00 0.00 93 1034.0
20260504140636 6 253 1.6 6.4 0.00 0.00 0.00 93 1034.0
20260504140142 6 251 3.2 6.4 0.00 0.00 0.00 93 1034.0
20260504130633 6 268 1.6 3.2 0.00 0.00 0.00 92 1034.4
20260504130131 6 267 0.0 3.2 0.00 0.00 0.00 92 1034.4
20260504110617 7 36 0.0 0.0 0.00 0.00 0.00 91 1034.5
20260504110112 7 36 0.0 0.0 0.00 0.00 0.00 91 1034.5
20260504100613 8 36 0.0 3.2 0.00 0.00 0.00 91 1034.2
20260504100112 8 36 0.0 3.2 0.00 0.00 0.00 91 1034.3
20260504090108 8 36 0.0 3.2 0.00 0.00 0.00 90 1034.3
20260504081603 9 36 0.0 1.6 0.00 0.00 0.00 89 1034.2
20260504081058 9 36 1.6 3.2 0.00 0.00 0.00 89 1034.2
20260504080550 9 36 1.6 3.2 0.00 0.00 0.00 89 1034.2
20260504050506 13 35 3.2 6.4 0.00 0.00 0.00 81 1033.1
20260504050004 13 61 3.2 6.4 0.00 0.00 0.00 80 1033.1